| time (UTC) | temp C | wind direction | speed KPH | gust KPH | rain 1hr cm | rain 24hr cm | rain mn cm | humidity % | barometer mb |
| 20260507073740 | 3 | 311 | 1.6 | 6.4 | 0.00 | 0.00 | 0.00 | 44 | 1020.3 |
| 20260507073240 | 3 | 311 | 1.6 | 4.8 | 0.00 | 0.00 | 0.00 | 43 | 1020.3 |
| 20260507072738 | 4 | 311 | 0.0 | 3.2 | 0.00 | 0.00 | 0.00 | 43 | 1020.2 |
| 20260507072239 | 4 | 311 | 1.6 | 4.8 | 0.00 | 0.00 | 0.00 | 44 | 1020.1 |
| 20260507071738 | 3 | 311 | 1.6 | 4.8 | 0.00 | 0.00 | 0.00 | 43 | 1020.0 |
| 20260507071238 | 3 | 311 | 3.2 | 4.8 | 0.00 | 0.00 | 0.00 | 43 | 1019.9 |
| 20260507071007 | 3 | 311 | 3.2 | 4.8 | 0.00 | 0.00 | 0.00 | 42 | 1020.0 |
| 20260507070501 | 4 | 311 | 1.6 | 4.8 | 0.00 | 0.00 | 0.00 | 42 | 1019.9 |
| 20260507065736 | 4 | 311 | 0.0 | 3.2 | 0.00 | 0.00 | 0.00 | 42 | 1019.7 |
| 20260507065230 | 4 | 311 | 0.0 | 4.8 | 0.00 | 0.00 | 0.00 | 42 | 1019.7 |
| 20260507064724 | 4 | 311 | 1.6 | 4.8 | 0.00 | 0.00 | 0.00 | 41 | 1019.7 |
| 20260507064218 | 4 | 311 | 1.6 | 4.8 | 0.00 | 0.00 | 0.00 | 40 | 1019.7 |
| 20260507063712 | 5 | 311 | 3.2 | 8.0 | 0.00 | 0.00 | 0.00 | 39 | 1019.6 |
| 20260507063206 | 5 | 311 | 4.8 | 8.0 | 0.00 | 0.00 | 0.00 | 37 | 1019.5 |
| 20260507062700 | 7 | 310 | 3.2 | 8.0 | 0.00 | 0.00 | 0.00 | 35 | 1019.5 |
| 20260507062154 | 8 | 310 | 1.6 | 6.4 | 0.00 | 0.00 | 0.00 | 34 | 1019.4 |
| 20260507061647 | 9 | 310 | 0.0 | 3.2 | 0.00 | 0.00 | 0.00 | 34 | 1019.3 |
| 20260507061142 | 9 | 310 | 0.0 | 0.0 | 0.00 | 0.00 | 0.00 | 34 | 1019.4 |
| 20260507060636 | 8 | 310 | 0.0 | 0.0 | 0.00 | 0.00 | 0.00 | 36 | 1019.4 |
| 20260507060132 | 8 | 310 | 0.0 | 0.0 | 0.00 | 0.00 | 0.00 | 36 | 1019.4 |
| 20260507055624 | 7 | 310 | 0.0 | 3.2 | 0.00 | 0.00 | 0.00 | 36 | 1019.4 |
| 20260507055118 | 8 | 310 | 1.6 | 6.4 | 0.00 | 0.00 | 0.00 | 36 | 1019.3 |
| 20260507054612 | 8 | 310 | 1.6 | 6.4 | 0.00 | 0.00 | 0.00 | 36 | 1019.1 |
| 20260507054106 | 8 | 310 | 1.6 | 4.8 | 0.00 | 0.00 | 0.00 | 36 | 1019.1 |
| 20260507053601 | 8 | 310 | 1.6 | 4.8 | 0.00 | 0.00 | 0.00 | 36 | 1019.3 |
| 20260507053314 | 8 | 310 | 1.6 | 4.8 | 0.00 | 0.00 | 0.00 | 36 | 1019.3 |
| 20260507052549 | 8 | 310 | 1.6 | 6.4 | 0.00 | 0.00 | 0.00 | 36 | 1019.3 |
| 20260507052513 | 8 | 309 | 1.6 | 4.8 | 0.00 | 0.00 | 0.00 | 35 | 1019.1 |
| 20260507052133 | 8 | 310 | 1.6 | 6.4 | 0.00 | 0.00 | 0.00 | 36 | 1019.1 |
| 20260507051030 | 9 | 310 | 0.0 | 3.2 | 0.00 | 0.00 | 0.00 | 35 | 1019.1 |
| 20260507050523 | 9 | 310 | 0.0 | 3.2 | 0.00 | 0.00 | 0.00 | 34 | 1019.0 |
| 20260507050018 | 9 | 310 | 1.6 | 4.8 | 0.00 | 0.00 | 0.00 | 34 | 1019.0 |
| 20260507045512 | 10 | 310 | 3.2 | 6.4 | 0.00 | 0.00 | 0.00 | 34 | 1019.0 |
| 20260507045006 | 10 | 310 | 3.2 | 6.4 | 0.00 | 0.00 | 0.00 | 34 | 1018.9 |
| 20260507044500 | 10 | 309 | 3.2 | 6.4 | 0.00 | 0.00 | 0.00 | 34 | 1018.8 |
| 20260507043954 | 10 | 309 | 3.2 | 8.0 | 0.00 | 0.00 | 0.00 | 33 | 1018.7 |
| 20260507043448 | 10 | 309 | 4.8 | 11.3 | 0.00 | 0.00 | 0.00 | 33 | 1018.8 |
| 20260507042942 | 10 | 309 | 3.2 | 11.3 | 0.00 | 0.00 | 0.00 | 33 | 1018.7 |
| 20260507042436 | 10 | 305 | 1.6 | 6.4 | 0.00 | 0.00 | 0.00 | 33 | 1018.7 |
| 20260507041930 | 10 | 305 | 1.6 | 4.8 | 0.00 | 0.00 | 0.00 | 32 | 1018.7 |
| 20260507041424 | 11 | 305 | 0.0 | 4.8 | 0.00 | 0.00 | 0.00 | 32 | 1018.5 |
| 20260507040918 | 11 | 304 | 0.0 | 3.2 | 0.00 | 0.00 | 0.00 | 31 | 1018.4 |
| 20260507040412 | 11 | 304 | 1.6 | 4.8 | 0.00 | 0.00 | 0.00 | 31 | 1018.4 |
| 20260507035907 | 11 | 304 | 1.6 | 4.8 | 0.00 | 0.00 | 0.00 | 30 | 1018.4 |
| 20260507035621 | 12 | 304 | 1.6 | 8.0 | 0.00 | 0.00 | 0.00 | 30 | 1018.3 |
| 20260507034855 | 12 | 304 | 1.6 | 8.0 | 0.00 | 0.00 | 0.00 | 30 | 1018.2 |
| 20260507034610 | 12 | 304 | 0.0 | 3.2 | 0.00 | 0.00 | 0.00 | 30 | 1018.2 |
| 20260507033842 | 12 | 304 | 0.0 | 0.0 | 0.00 | 0.00 | 0.00 | 30 | 1018.1 |
| 20260507033336 | 12 | 304 | 0.0 | 1.6 | 0.00 | 0.00 | 0.00 | 29 | 1018.1 |
| 20260507032830 | 12 | 304 | 0.0 | 1.6 | 0.00 | 0.00 | 0.00 | 29 | 1017.9 |
| 20260507032326 | 12 | 304 | 0.0 | 1.6 | 0.00 | 0.00 | 0.00 | 29 | 1017.8 |
| 20260507031817 | 12 | 304 | 0.0 | 1.6 | 0.00 | 0.00 | 0.00 | 29 | 1017.7 |
| 20260507031313 | 13 | 304 | 0.0 | 4.8 | 0.00 | 0.00 | 0.00 | 28 | 1017.7 |
| 20260507030806 | 13 | 304 | 0.0 | 6.4 | 0.00 | 0.00 | 0.00 | 28 | 1017.6 |
| 20260507030300 | 13 | 304 | 1.6 | 4.8 | 0.00 | 0.00 | 0.00 | 28 | 1017.6 |
| 20260507030014 | 13 | 304 | 1.6 | 4.8 | 0.00 | 0.00 | 0.00 | 28 | 1017.3 |
| 20260507025248 | 13 | 304 | 0.0 | 3.2 | 0.00 | 0.00 | 0.00 | 28 | 1017.2 |
| 20260507024741 | 13 | 304 | 0.0 | 4.8 | 0.00 | 0.00 | 0.00 | 27 | 1017.1 |
| 20260507024236 | 14 | 304 | 0.0 | 8.0 | 0.00 | 0.00 | 0.00 | 27 | 1017.1 |
| 20260507023730 | 14 | 304 | 0.0 | 8.0 | 0.00 | 0.00 | 0.00 | 27 | 1017.1 |
| 20260507023224 | 15 | 303 | 1.6 | 6.4 | 0.00 | 0.00 | 0.00 | 27 | 1017.1 |
| 20260507022938 | 15 | 303 | 3.2 | 8.0 | 0.00 | 0.00 | 0.00 | 26 | 1017.0 |
| 20260507022212 | 15 | 303 | 4.8 | 16.1 | 0.00 | 0.00 | 0.00 | 26 | 1016.9 |
| 20260507021706 | 16 | 303 | 6.4 | 16.1 | 0.00 | 0.00 | 0.00 | 25 | 1016.9 |
| 20260507021200 | 16 | 314 | 6.4 | 14.5 | 0.00 | 0.00 | 0.00 | 25 | 1016.9 |
| 20260507020919 | 16 | 322 | 4.8 | 12.9 | 0.00 | 0.00 | 0.00 | 25 | 1016.9 |
| 20260507020148 | 17 | 317 | 3.2 | 12.9 | 0.00 | 0.00 | 0.00 | 24 | 1016.7 |
| 20260507015642 | 17 | 323 | 3.2 | 12.9 | 0.00 | 0.00 | 0.00 | 24 | 1016.6 |
| 20260507015136 | 17 | 331 | 4.8 | 16.1 | 0.00 | 0.00 | 0.00 | 24 | 1016.6 |
| 20260507014630 | 17 | 337 | 4.8 | 16.1 | 0.00 | 0.00 | 0.00 | 24 | 1016.6 |
| 20260507014123 | 17 | 332 | 6.4 | 16.1 | 0.00 | 0.00 | 0.00 | 24 | 1016.6 |
| 20260507013617 | 17 | 343 | 8.0 | 16.1 | 0.00 | 0.00 | 0.00 | 24 | 1016.5 |
| 20260507013111 | 17 | 338 | 8.0 | 14.5 | 0.00 | 0.00 | 0.00 | 23 | 1016.5 |
| 20260507012605 | 17 | 333 | 6.4 | 14.5 | 0.00 | 0.00 | 0.00 | 24 | 1016.4 |
| 20260507012100 | 17 | 280 | 8.0 | 17.7 | 0.00 | 0.00 | 0.00 | 24 | 1016.4 |
| 20260507011821 | 17 | 353 | 8.0 | 17.7 | 0.00 | 0.00 | 0.00 | 24 | 1016.4 |
| 20260507011049 | 17 | 4 | 9.7 | 17.7 | 0.00 | 0.00 | 0.00 | 24 | 1016.4 |
| 20260507010807 | 17 | 10 | 11.3 | 20.9 | 0.00 | 0.00 | 0.00 | 24 | 1016.4 |
| 20260507010255 | 18 | 341 | 8.0 | 20.9 | 0.00 | 0.00 | 0.00 | 24 | 1016.3 |
| 20260507005531 | 18 | 342 | 6.4 | 17.7 | 0.00 | 0.00 | 0.00 | 24 | 1016.3 |
| 20260507005025 | 17 | 345 | 6.4 | 17.7 | 0.00 | 0.00 | 0.00 | 24 | 1016.3 |
| 20260507004519 | 17 | 345 | 8.0 | 20.9 | 0.00 | 0.00 | 0.00 | 24 | 1016.3 |
| 20260507004013 | 17 | 302 | 8.0 | 20.9 | 0.00 | 0.00 | 0.00 | 24 | 1016.3 |
| 20260507003508 | 17 | 342 | 8.0 | 19.3 | 0.00 | 0.00 | 0.00 | 24 | 1016.3 |
| 20260507003221 | 17 | 350 | 6.4 | 16.1 | 0.00 | 0.00 | 0.00 | 24 | 1016.4 |
| 20260507002456 | 17 | 347 | 8.0 | 19.3 | 0.00 | 0.00 | 0.00 | 24 | 1016.3 |
| 20260507002431 | 17 | 347 | 11.3 | 19.3 | 0.00 | 0.00 | 0.00 | 24 | 1016.3 |
| 20260507001443 | 17 | 0 | 11.3 | 19.3 | 0.00 | 0.00 | 0.00 | 24 | 1016.3 |
| 20260507001203 | 18 | 347 | 8.0 | 19.3 | 0.00 | 0.00 | 0.00 | 24 | 1016.3 |
| 20260507000432 | 17 | 314 | 8.0 | 19.3 | 0.00 | 0.00 | 0.00 | 25 | 1016.1 |
| 20260506235925 | 17 | 344 | 6.4 | 19.3 | 0.00 | 0.00 | 0.00 | 24 | 1016.1 |
| 20260506235421 | 17 | 328 | 6.4 | 20.9 | 0.00 | 0.00 | 0.00 | 25 | 1016.1 |
| 20260506235132 | 16 | 332 | 9.7 | 20.9 | 0.00 | 0.00 | 0.00 | 25 | 1016.3 |
| 20260506234407 | 17 | 5 | 12.9 | 24.1 | 0.00 | 0.00 | 0.00 | 24 | 1016.3 |
| 20260506234124 | 17 | 344 | 11.3 | 24.1 | 0.00 | 0.00 | 0.00 | 24 | 1016.3 |
| 20260506233356 | 17 | 1 | 9.7 | 24.1 | 0.00 | 0.00 | 0.00 | 24 | 1016.3 |
| 20260506232849 | 17 | 44 | 9.7 | 24.1 | 0.00 | 0.00 | 0.00 | 23 | 1016.3 |
| 20260506232607 | 18 | 311 | 11.3 | 22.5 | 0.00 | 0.00 | 0.00 | 23 | 1016.3 |
| 20260506231838 | 18 | 349 | 12.9 | 24.1 | 0.00 | 0.00 | 0.00 | 24 | 1016.3 |
| 20260506231331 | 18 | 1 | 12.9 | 38.6 | 0.00 | 0.00 | 0.00 | 23 | 1016.3 |
| 20260506231047 | 17 | 7 | 11.3 | 38.6 | 0.00 | 0.00 | 0.00 | 23 | 1016.1 |
| 20260506230319 | 17 | 304 | 11.3 | 30.6 | 0.00 | 0.00 | 0.00 | 23 | 1016.3 |
| 20260506230040 | 18 | 313 | 14.5 | 30.6 | 0.00 | 0.00 | 0.00 | 23 | 1016.1 |
| 20260506225308 | 18 | 299 | 14.5 | 25.7 | 0.00 | 0.00 | 0.00 | 23 | 1016.0 |
| 20260506224802 | 17 | 295 | 14.5 | 29.0 | 0.00 | 0.00 | 0.00 | 23 | 1016.1 |
| 20260506224255 | 17 | 309 | 11.3 | 30.6 | 0.00 | 0.00 | 0.00 | 24 | 1016.0 |
| 20260506224011 | 18 | 346 | 9.7 | 30.6 | 0.00 | 0.00 | 0.00 | 23 | 1016.3 |
| 20260506223243 | 17 | 348 | 12.9 | 27.4 | 0.00 | 0.00 | 0.00 | 23 | 1016.3 |
| 20260506222739 | 17 | 30 | 14.5 | 27.4 | 0.00 | 0.00 | 0.00 | 24 | 1016.3 |
| 20260506222231 | 18 | 355 | 14.5 | 29.0 | 0.00 | 0.00 | 0.00 | 23 | 1016.4 |
| 20260506221726 | 18 | 333 | 12.9 | 29.0 | 0.00 | 0.00 | 0.00 | 24 | 1016.3 |
| 20260506221220 | 18 | 340 | 11.3 | 25.7 | 0.00 | 0.00 | 0.00 | 23 | 1016.3 |
| 20260506220713 | 17 | 37 | 14.5 | 27.4 | 0.00 | 0.00 | 0.00 | 23 | 1016.4 |
| 20260506220207 | 17 | 357 | 14.5 | 27.4 | 0.00 | 0.00 | 0.00 | 22 | 1016.5 |
| 20260506215701 | 17 | 14 | 12.9 | 27.4 | 0.00 | 0.00 | 0.00 | 22 | 1016.5 |
| 20260506215156 | 18 | 341 | 12.9 | 38.6 | 0.00 | 0.00 | 0.00 | 21 | 1016.4 |
| 20260506214649 | 18 | 312 | 12.9 | 38.6 | 0.00 | 0.00 | 0.00 | 21 | 1016.5 |
| 20260506214143 | 18 | 306 | 12.9 | 29.0 | 0.00 | 0.00 | 0.00 | 21 | 1016.5 |
| 20260506213637 | 17 | 311 | 14.5 | 29.0 | 0.00 | 0.00 | 0.00 | 24 | 1016.6 |
| 20260506213131 | 17 | 356 | 14.5 | 30.6 | 0.00 | 0.00 | 0.00 | 24 | 1016.5 |
| 20260506212626 | 17 | 284 | 14.5 | 30.6 | 0.00 | 0.00 | 0.00 | 23 | 1016.6 |
| 20260506212119 | 17 | 349 | 17.7 | 35.4 | 0.00 | 0.00 | 0.00 | 24 | 1016.6 |
| 20260506211615 | 17 | 345 | 17.7 | 35.4 | 0.00 | 0.00 | 0.00 | 22 | 1016.7 |
| 20260506211116 | 17 | 343 | 14.5 | 27.4 | 0.00 | 0.00 | 0.00 | 21 | 1016.7 |
| 20260506210616 | 17 | 339 | 17.7 | 35.4 | 0.00 | 0.00 | 0.00 | 22 | 1016.7 |
| 20260506210335 | 17 | 323 | 19.3 | 35.4 | 0.00 | 0.00 | 0.00 | 22 | 1016.9 |
| 20260506205615 | 17 | 347 | 17.7 | 35.4 | 0.00 | 0.00 | 0.00 | 23 | 1016.7 |
| 20260506205114 | 17 | 306 | 16.1 | 32.2 | 0.00 | 0.00 | 0.00 | 23 | 1016.6 |
| 20260506204616 | 17 | 347 | 14.5 | 35.4 | 0.00 | 0.00 | 0.00 | 25 | 1016.7 |
| 20260506204115 | 17 | 1 | 11.3 | 35.4 | 0.00 | 0.00 | 0.00 | 26 | 1016.7 |
| 20260506203614 | 17 | 300 | 12.9 | 25.7 | 0.00 | 0.00 | 0.00 | 26 | 1016.9 |
| 20260506203114 | 16 | 343 | 12.9 | 29.0 | 0.00 | 0.00 | 0.00 | 27 | 1016.9 |
| 20260506202615 | 16 | 336 | 12.9 | 29.0 | 0.00 | 0.00 | 0.00 | 28 | 1017.0 |
| 20260506202114 | 16 | 304 | 11.3 | 24.1 | 0.00 | 0.00 | 0.00 | 28 | 1016.9 |
| 20260506201618 | 16 | 355 | 12.9 | 37.0 | 0.00 | 0.00 | 0.00 | 28 | 1017.0 |
| 20260506201117 | 16 | 307 | 12.9 | 37.0 | 0.00 | 0.00 | 0.00 | 28 | 1016.9 |
| 20260506200621 | 16 | 311 | 11.3 | 24.1 | 0.00 | 0.00 | 0.00 | 29 | 1016.9 |
| 20260506200119 | 16 | 309 | 11.3 | 22.5 | 0.00 | 0.00 | 0.00 | 31 | 1016.9 |
| 20260506195843 | 16 | 345 | 14.5 | 8.0 | 0.00 | 0.00 | 0.00 | 30 | 1016.9 |
| 20260506194949 | 16 | 342 | 12.9 | 30.6 | 0.00 | 0.00 | 0.00 | 32 | 1016.9 |
| 20260506194450 | 15 | 357 | 11.3 | 25.7 | 0.00 | 0.00 | 0.00 | 32 | 1017.0 |
| 20260506193949 | 15 | 341 | 9.7 | 25.7 | 0.00 | 0.00 | 0.00 | 31 | 1017.1 |
| 20260506193449 | 16 | 308 | 11.3 | 24.1 | 0.00 | 0.00 | 0.00 | 32 | 1017.1 |
| 20260506192944 | 15 | 336 | 9.7 | 24.1 | 0.00 | 0.00 | 0.00 | 33 | 1017.0 |
| 20260506192445 | 15 | 308 | 9.7 | 24.1 | 0.00 | 0.00 | 0.00 | 34 | 1017.0 |
| 20260506191945 | 15 | 347 | 11.3 | 25.7 | 0.00 | 0.00 | 0.00 | 33 | 1017.1 |
| 20260506191445 | 15 | 345 | 12.9 | 25.7 | 0.00 | 0.00 | 0.00 | 33 | 1017.2 |
| 20260506190944 | 15 | 311 | 11.3 | 25.7 | 0.00 | 0.00 | 0.00 | 34 | 1017.2 |
| 20260506190446 | 15 | 345 | 11.3 | 25.7 | 0.00 | 0.00 | 0.00 | 33 | 1017.1 |
| 20260506185946 | 15 | 330 | 11.3 | 25.7 | 0.00 | 0.00 | 0.00 | 34 | 1017.2 |
| 20260506185705 | 15 | 342 | 11.3 | 25.7 | 0.00 | 0.00 | 0.00 | 35 | 1017.3 |
| 20260506184944 | 15 | 358 | 11.3 | 24.1 | 0.00 | 0.00 | 0.00 | 34 | 1017.3 |
| 20260506184440 | 15 | 351 | 11.3 | 24.1 | 0.00 | 0.00 | 0.00 | 34 | 1017.5 |
| 20260506183940 | 14 | 350 | 11.3 | 29.0 | 0.00 | 0.00 | 0.00 | 35 | 1017.3 |
| 20260506183441 | 15 | 304 | 11.3 | 29.0 | 0.00 | 0.00 | 0.00 | 34 | 1017.6 |
| 20260506182941 | 14 | 317 | 11.3 | 29.0 | 0.00 | 0.00 | 0.00 | 35 | 1017.5 |
| 20260506182441 | 14 | 286 | 11.3 | 29.0 | 0.00 | 0.00 | 0.00 | 35 | 1017.6 |
| 20260506181941 | 13 | 353 | 12.9 | 22.5 | 0.00 | 0.00 | 0.00 | 35 | 1017.6 |
| 20260506181440 | 14 | 347 | 12.9 | 29.0 | 0.00 | 0.00 | 0.00 | 35 | 1017.6 |
| 20260506180941 | 14 | 340 | 12.9 | 29.0 | 0.00 | 0.00 | 0.00 | 35 | 1017.6 |
| 20260506180705 | 13 | 358 | 11.3 | 25.7 | 0.00 | 0.00 | 0.00 | 36 | 1017.6 |
| 20260506175937 | 13 | 353 | 9.7 | 25.7 | 0.00 | 0.00 | 0.00 | 36 | 1017.7 |
| 20260506175437 | 13 | 331 | 8.0 | 19.3 | 0.00 | 0.00 | 0.00 | 36 | 1017.7 |
| 20260506174936 | 13 | 316 | 9.7 | 22.5 | 0.00 | 0.00 | 0.00 | 36 | 1017.6 |
| 20260506174437 | 13 | 4 | 9.7 | 22.5 | 0.00 | 0.00 | 0.00 | 35 | 1017.6 |
| 20260506173937 | 13 | 312 | 9.7 | 22.5 | 0.00 | 0.00 | 0.00 | 35 | 1017.6 |
| 20260506173708 | 12 | 314 | 9.7 | 22.5 | 0.00 | 0.00 | 0.00 | 37 | 1017.6 |
| 20260506172937 | 12 | 351 | 11.3 | 25.7 | 0.00 | 0.00 | 0.00 | 35 | 1017.6 |
| 20260506172437 | 13 | 331 | 9.7 | 25.7 | 0.00 | 0.00 | 0.00 | 35 | 1017.6 |
| 20260506172203 | 12 | 357 | 9.7 | 24.1 | 0.00 | 0.00 | 0.00 | 35 | 1017.5 |
| 20260506171433 | 12 | 356 | 9.7 | 24.1 | 0.00 | 0.00 | 0.00 | 36 | 1017.5 |
| 20260506171147 | 12 | 318 | 8.0 | 19.3 | 0.00 | 0.00 | 0.00 | 36 | 1017.5 |
| 20260506171028 | 12 | 322 | 9.7 | 19.3 | 0.00 | 0.00 | 0.00 | 36 | 1017.5 |
| 20260506170154 | 12 | 301 | 6.4 | 19.3 | 0.00 | 0.00 | 0.00 | 36 | 1017.6 |
| 20260506165432 | 11 | 292 | 6.4 | 19.3 | 0.00 | 0.00 | 0.00 | 37 | 1017.6 |
| 20260506164932 | 11 | 291 | 8.0 | 17.7 | 0.00 | 0.00 | 0.00 | 37 | 1017.6 |
| 20260506164433 | 11 | 288 | 9.7 | 19.3 | 0.00 | 0.00 | 0.00 | 37 | 1017.6 |
| 20260506163934 | 11 | 287 | 9.7 | 19.3 | 0.00 | 0.00 | 0.00 | 38 | 1017.6 |
| 20260506163433 | 11 | 283 | 6.4 | 19.3 | 0.00 | 0.00 | 0.00 | 37 | 1017.5 |
| 20260506163156 | 11 | 274 | 6.4 | 14.5 | 0.00 | 0.00 | 0.00 | 38 | 1017.5 |
| 20260506162428 | 11 | 274 | 6.4 | 16.1 | 0.00 | 0.00 | 0.00 | 40 | 1017.5 |
| 20260506161928 | 10 | 274 | 8.0 | 16.1 | 0.00 | 0.00 | 0.00 | 40 | 1017.5 |
| 20260506161429 | 10 | 274 | 6.4 | 12.9 | 0.00 | 0.00 | 0.00 | 40 | 1017.5 |
| 20260506160929 | 10 | 273 | 6.4 | 14.5 | 0.00 | 0.00 | 0.00 | 40 | 1017.5 |
| 20260506160428 | 10 | 273 | 6.4 | 19.3 | 0.00 | 0.00 | 0.00 | 41 | 1017.5 |
| 20260506155928 | 10 | 271 | 6.4 | 19.3 | 0.00 | 0.00 | 0.00 | 41 | 1017.5 |
| 20260506155429 | 10 | 263 | 6.4 | 16.1 | 0.00 | 0.00 | 0.00 | 41 | 1017.3 |
| 20260506154929 | 10 | 262 | 8.0 | 16.1 | 0.00 | 0.00 | 0.00 | 40 | 1017.5 |
| 20260506154432 | 9 | 256 | 8.0 | 12.9 | 0.00 | 0.00 | 0.00 | 40 | 1017.3 |
| 20260506153926 | 9 | 253 | 8.0 | 12.9 | 0.00 | 0.00 | 0.00 | 41 | 1017.5 |
| 20260506153639 | 9 | 253 | 8.0 | 12.9 | 0.00 | 0.00 | 0.00 | 42 | 1017.2 |
| 20260506152913 | 9 | 249 | 8.0 | 14.5 | 0.00 | 0.00 | 0.00 | 43 | 1017.2 |
| 20260506152408 | 9 | 247 | 8.0 | 14.5 | 0.00 | 0.00 | 0.00 | 43 | 1017.2 |
| 20260506151903 | 8 | 242 | 6.4 | 14.5 | 0.00 | 0.00 | 0.00 | 45 | 1017.2 |
| 20260506151356 | 8 | 242 | 6.4 | 14.5 | 0.00 | 0.00 | 0.00 | 46 | 1017.2 |
| 20260506151120 | 8 | 241 | 8.0 | 14.5 | 0.00 | 0.00 | 0.00 | 47 | 1017.2 |
| 20260506150344 | 8 | 239 | 6.4 | 14.5 | 0.00 | 0.00 | 0.00 | 47 | 1017.1 |
| 20260506150058 | 7 | 237 | 6.4 | 14.5 | 0.00 | 0.00 | 0.00 | 48 | 1017.1 |
| 20260506145333 | 7 | 237 | 6.4 | 12.9 | 0.00 | 0.00 | 0.00 | 50 | 1017.1 |
| 20260506144826 | 7 | 233 | 8.0 | 14.5 | 0.00 | 0.00 | 0.00 | 51 | 1017.1 |
| 20260506144319 | 7 | 232 | 8.0 | 16.1 | 0.00 | 0.00 | 0.00 | 51 | 1017.1 |
| 20260506144034 | 7 | 230 | 8.0 | 14.5 | 0.00 | 0.00 | 0.00 | 51 | 1016.9 |
| 20260506143307 | 6 | 229 | 8.0 | 14.5 | 0.00 | 0.00 | 0.00 | 52 | 1016.9 |
| 20260506142801 | 6 | 222 | 9.7 | 17.7 | 0.00 | 0.00 | 0.00 | 52 | 1016.6 |
| 20260506142255 | 6 | 224 | 9.7 | 17.7 | 0.00 | 0.00 | 0.00 | 52 | 1016.6 |
| 20260506141749 | 6 | 224 | 9.7 | 16.1 | 0.00 | 0.00 | 0.00 | 53 | 1016.5 |
| 20260506141243 | 6 | 224 | 9.7 | 16.1 | 0.00 | 0.00 | 0.00 | 53 | 1016.5 |
| 20260506140737 | 6 | 224 | 11.3 | 17.7 | 0.00 | 0.00 | 0.00 | 54 | 1016.3 |
| 20260506140231 | 5 | 224 | 9.7 | 17.7 | 0.00 | 0.00 | 0.00 | 53 | 1016.3 |
| 20260506135725 | 5 | 225 | 9.7 | 14.5 | 0.00 | 0.00 | 0.00 | 54 | 1016.3 |
| 20260506135219 | 5 | 225 | 9.7 | 16.1 | 0.00 | 0.00 | 0.00 | 54 | 1016.1 |
| 20260506134933 | 5 | 225 | 9.7 | 16.1 | 0.00 | 0.00 | 0.00 | 55 | 1016.0 |
| 20260506134207 | 5 | 225 | 9.7 | 16.1 | 0.00 | 0.00 | 0.00 | 56 | 1016.0 |
| 20260506133700 | 4 | 225 | 8.0 | 14.5 | 0.00 | 0.00 | 0.00 | 57 | 1015.9 |
| 20260506133155 | 4 | 225 | 8.0 | 14.5 | 0.00 | 0.00 | 0.00 | 58 | 1015.8 |
| 20260506132649 | 3 | 225 | 8.0 | 14.5 | 0.00 | 0.00 | 0.00 | 59 | 1015.8 |
| 20260506132405 | 3 | 225 | 8.0 | 11.3 | 0.00 | 0.00 | 0.00 | 60 | 1015.8 |
| 20260506131636 | 3 | 225 | 8.0 | 11.3 | 0.00 | 0.00 | 0.00 | 61 | 1015.8 |
| 20260506131351 | 3 | 225 | 6.4 | 11.3 | 0.00 | 0.00 | 0.00 | 62 | 1015.7 |
| 20260506130626 | 2 | 225 | 8.0 | 14.5 | 0.00 | 0.00 | 0.00 | 62 | 1015.8 |
| 20260506130119 | 2 | 225 | 8.0 | 14.5 | 0.00 | 0.00 | 0.00 | 63 | 1015.5 |
| 20260506125612 | 2 | 225 | 8.0 | 11.3 | 0.00 | 0.00 | 0.00 | 63 | 1015.4 |
| 20260506125107 | 2 | 225 | 8.0 | 14.5 | 0.00 | 0.00 | 0.00 | 64 | 1015.4 |
| 20260506124601 | 2 | 225 | 8.0 | 14.5 | 0.00 | 0.00 | 0.00 | 64 | 1015.3 |
| 20260506124055 | 2 | 225 | 8.0 | 14.5 | 0.00 | 0.00 | 0.00 | 64 | 1015.3 |
| 20260506123549 | 1 | 225 | 9.7 | 16.1 | 0.00 | 0.00 | 0.00 | 65 | 1015.3 |
| 20260506123042 | 1 | 225 | 9.7 | 16.1 | 0.00 | 0.00 | 0.00 | 65 | 1015.2 |
| 20260506122801 | 1 | 225 | 8.0 | 14.5 | 0.00 | 0.00 | 0.00 | 66 | 1015.1 |
| 20260506122255 | 1 | 225 | 8.0 | 14.5 | 0.00 | 0.00 | 0.00 | 66 | 1015.1 |
| 20260506121525 | 1 | 226 | 8.0 | 11.3 | 0.00 | 0.00 | 0.00 | 65 | 1015.1 |
| 20260506121020 | 1 | 226 | 8.0 | 11.3 | 0.00 | 0.00 | 0.00 | 65 | 1015.1 |
| 20260506120954 | 1 | 226 | 6.4 | 11.3 | 0.00 | 0.00 | 0.00 | 65 | 1015.3 |
| 20260506120007 | 1 | 225 | 6.4 | 11.3 | 0.00 | 0.00 | 0.00 | 64 | 1015.2 |
| 20260506115501 | 2 | 226 | 8.0 | 11.3 | 0.00 | 0.00 | 0.00 | 64 | 1015.2 |
| 20260506114955 | 2 | 226 | 8.0 | 11.3 | 0.00 | 0.00 | 0.00 | 63 | 1015.2 |
| 20260506114449 | 2 | 226 | 9.7 | 14.5 | 0.00 | 0.00 | 0.00 | 63 | 1015.2 |
| 20260506113943 | 2 | 226 | 9.7 | 17.7 | 0.00 | 0.00 | 0.00 | 63 | 1015.2 |
| 20260506113437 | 2 | 226 | 11.3 | 20.9 | 0.00 | 0.00 | 0.00 | 63 | 1015.1 |
| 20260506112930 | 2 | 226 | 11.3 | 20.9 | 0.00 | 0.00 | 0.00 | 63 | 1015.1 |
| 20260506112425 | 2 | 231 | 9.7 | 16.1 | 0.00 | 0.00 | 0.00 | 63 | 1014.9 |
| 20260506112140 | 2 | 232 | 9.7 | 16.1 | 0.00 | 0.00 | 0.00 | 63 | 1014.9 |
| 20260506111413 | 2 | 233 | 8.0 | 14.5 | 0.00 | 0.00 | 0.00 | 63 | 1014.9 |
| 20260506110907 | 2 | 233 | 8.0 | 14.5 | 0.00 | 0.00 | 0.00 | 63 | 1014.9 |
| 20260506110401 | 2 | 234 | 8.0 | 11.3 | 0.00 | 0.00 | 0.00 | 63 | 1014.8 |
| 20260506105855 | 2 | 234 | 8.0 | 11.3 | 0.00 | 0.00 | 0.00 | 63 | 1014.8 |
| 20260506105616 | 2 | 234 | 8.0 | 11.3 | 0.00 | 0.00 | 0.00 | 63 | 1014.8 |
| 20260506104842 | 2 | 235 | 6.4 | 11.3 | 0.00 | 0.00 | 0.00 | 63 | 1014.7 |
| 20260506104557 | 2 | 235 | 6.4 | 9.7 | 0.00 | 0.00 | 0.00 | 63 | 1014.7 |
| 20260506103831 | 2 | 235 | 4.8 | 9.7 | 0.00 | 0.00 | 0.00 | 63 | 1014.7 |
| 20260506103548 | 2 | 235 | 6.4 | 12.9 | 0.00 | 0.00 | 0.00 | 62 | 1014.6 |
| 20260506102818 | 2 | 235 | 6.4 | 12.9 | 0.00 | 0.00 | 0.00 | 62 | 1014.5 |
| 20260506102313 | 2 | 235 | 6.4 | 9.7 | 0.00 | 0.00 | 0.00 | 62 | 1014.3 |
| 20260506102031 | 2 | 235 | 6.4 | 11.3 | 0.00 | 0.00 | 0.00 | 62 | 1014.3 |
| 20260506101301 | 2 | 235 | 8.0 | 12.9 | 0.00 | 0.00 | 0.00 | 62 | 1014.3 |
| 20260506101020 | 2 | 235 | 8.0 | 12.9 | 0.00 | 0.00 | 0.00 | 62 | 1014.3 |
| 20260506100249 | 2 | 235 | 8.0 | 11.3 | 0.00 | 0.00 | 0.00 | 62 | 1014.3 |
| 20260506095743 | 2 | 235 | 8.0 | 11.3 | 0.00 | 0.00 | 0.00 | 62 | 1014.3 |
| 20260506095236 | 2 | 235 | 6.4 | 11.3 | 0.00 | 0.00 | 0.00 | 62 | 1014.3 |
| 20260506095218 | 2 | 235 | 6.4 | 9.7 | 0.00 | 0.00 | 0.00 | 62 | 1014.3 |
| 20260506094224 | 2 | 235 | 6.4 | 9.7 | 0.00 | 0.00 | 0.00 | 61 | 1014.3 |
| 20260506093719 | 2 | 235 | 6.4 | 9.7 | 0.00 | 0.00 | 0.00 | 61 | 1014.2 |
| 20260506093212 | 2 | 235 | 6.4 | 11.3 | 0.00 | 0.00 | 0.00 | 61 | 1014.2 |
| 20260506092707 | 2 | 235 | 6.4 | 12.9 | 0.00 | 0.00 | 0.00 | 61 | 1014.1 |
| 20260506092201 | 2 | 235 | 8.0 | 12.9 | 0.00 | 0.00 | 0.00 | 61 | 1014.1 |
| 20260506091655 | 2 | 236 | 8.0 | 12.9 | 0.00 | 0.00 | 0.00 | 61 | 1014.1 |
| 20260506091414 | 2 | 237 | 8.0 | 12.9 | 0.00 | 0.00 | 0.00 | 61 | 1014.1 |
| 20260506090643 | 2 | 237 | 8.0 | 12.9 | 0.00 | 0.00 | 0.00 | 61 | 1014.0 |
| 20260506090137 | 2 | 237 | 8.0 | 12.9 | 0.00 | 0.00 | 0.00 | 61 | 1014.1 |
| 20260506085631 | 2 | 239 | 8.0 | 12.9 | 0.00 | 0.00 | 0.00 | 61 | 1014.1 |
| 20260506085345 | 2 | 239 | 8.0 | 12.9 | 0.00 | 0.00 | 0.00 | 61 | 1014.1 |
| 20260506084619 | 2 | 241 | 8.0 | 11.3 | 0.00 | 0.00 | 0.00 | 62 | 1014.1 |
| 20260506084113 | 2 | 241 | 6.4 | 11.3 | 0.00 | 0.00 | 0.00 | 62 | 1014.2 |
| 20260506083606 | 2 | 242 | 6.4 | 11.3 | 0.00 | 0.00 | 0.00 | 62 | 1014.2 |
| 20260506083101 | 2 | 242 | 8.0 | 11.3 | 0.00 | 0.00 | 0.00 | 62 | 1014.2 |
| 20260506082555 | 2 | 243 | 8.0 | 11.3 | 0.00 | 0.00 | 0.00 | 62 | 1014.3 |
| 20260506082317 | 2 | 243 | 8.0 | 12.9 | 0.00 | 0.00 | 0.00 | 62 | 1014.2 |
| 20260506081543 | 2 | 244 | 8.0 | 12.9 | 0.00 | 0.00 | 0.00 | 62 | 1014.2 |
| 20260506081037 | 2 | 245 | 8.0 | 12.9 | 0.00 | 0.00 | 0.00 | 63 | 1014.5 |
| 20260506080531 | 2 | 247 | 6.4 | 12.9 | 0.00 | 0.00 | 0.00 | 63 | 1014.6 |